Regional Weather Roundup
Issued by NWS

Home | Current Version | Previous Version | Graphics & Text | Print | Product List | Glossary Off
Versions: 1 2 3 4 5 6 7 8 9 10 11 12 13 14 15 16 17 18 19 20 21 22 23 24 25 26 27 28 29 30 31 32 33 34 35 36 37 38 39 40 41 42 43 44 45 46 47 48 49 50

000
ASUS45 KSLC 050610
RWRUT

UTAH REGIONAL WEATHER ROUNDUP
NATIONAL WEATHER SERVICE SALT LAKE CITY UT
1200 AM MDT SUN JUL 05 2015

UTZ001>011-023>025-050700-

NORTHERN UTAH

CITY           SKY/WX    TMP DP  RH WIND       PRES   REMARKS
BRIGHAM CITY   CLOUDY    81  52  36 CALM      29.96F
HILL AFB       CLOUDY    78  55  45 SE5       29.99F
LOGAN          PTCLDY    81  52  36 S14       29.94S
OGDEN          CLOUDY    80  54  40 SE7       29.96F
PROVO AIRPORT  CLOUDY    75  55  50 SE7       29.99S
SALT LAKE CITY CLOUDY    82  56  40 NE6       29.95S
VERNAL         MOCLDY    76  49  38 S6        30.00R
WENDOVER       CLOUDY    79  54  41 S17       29.99R
HEBER CITY     MOCLDY    70  50  49 CALM      30.07S
WEST JORDAN    MOCLDY    79  54  41 CALM      29.99S

$$

UTZ012>022-026-027-050700-

SOUTHERN/CENTRAL UTAH

CITY           SKY/WX    TMP DP  RH WIND       PRES   REMARKS
BLANDING       CLOUDY    64  59  85 E6        30.28F
BRYCE CANYON   CLOUDY    61  53  75 W10       30.26S
CEDAR CITY     CLOUDY    72  51  47 SE6       30.11S
DELTA          CLOUDY    78  50  37 E3        30.01F
HANKSVILLE     CLOUDY    72  61  68 E17G24    30.05R
MILFORD        CLOUDY    78  49  35 S9        30.04R
MOAB/CYNLANDS  LGT RAIN  69  61  75 S9        30.10R
PRICE          CLOUDY    78  45  30 SW7       30.10R
ST GEORGE      MOCLDY    84  45  24 SE3       29.93S
KANAB          MOCLDY    70  54  56 NW3       30.13S

$$

REGIONAL REPORTS     COLORADO/ARIZONA

CITY           SKY/WX    TMP DP  RH WIND       PRES   REMARKS
CRAIG, CO      MOCLDY    63  54  72 CALM      30.11S
GRAND JUNCTION LGT RAIN  69  61  75 W9        30.06R
RIFLE          CLOUDY    67  58  72 S3        30.09F
MONTROSE       CLOUDY    76  48  37 S6        30.14R
CORTEZ         PTCLDY    66  56  70 W12       30.21R
PAGE, AZ       CLOUDY    84  49  29 SW6       30.01R
GRAND CANYON   MOCLDY    61  54  77 CALM      30.23S
KINGMAN        MOCLDY    80  48  32 S6        29.97S
FLAGSTAFF      MOCLDY    58  57  97 CALM      30.28S

$$

REGIONAL REPORTS    NEVADA/IDAHO/WYOMING

CITY           SKY/WX    TMP DP  RH WIND       PRES   REMARKS
LAS VEGAS, NV  PTCLDY    95  48  20 S13       29.80R HX  91
ELY            CLOUDY    69  49  48 W9        30.16R
ELKO           CLOUDY    69  52  54 SW13      30.08S
POCATELLO, ID  CLEAR     77  47  34 SW8       29.91R
BURLEY         MOCLDY    73  52  47 SW10      29.89S
EVANSTON, WY   MOCLDY    67  48  50 SW13      30.16F
ROCK SPRINGS   MOCLDY    71  44  37 SW15      30.08F
KEMMERER       MOCLDY   N/A N/A N/A W7        30.15S

$$



USA.gov is the U.S. government's official web portal to all federal, state and local government web resources and services.